Home   Weather   Summerville   Past weeks
Flag for USA

Past Weather in Summerville, South Carolina, USA — Yesterday and Last 2 Weeks

Now
50 °F

Fog.


Feels Like: 48 °F
Forecast: 73 / 47 °F
Wind: 5 mph from East

Location: Charleston Air Force Base Reporting Station

Current Time: Dec 9, 2019 at 2:40:26 am

Latest Report: Dec 9, 2019 at 1:56 am


Visibility: 3 mi

Pressure: 30.20 "Hg

Humidity: 96%

Dew Point: 49 °F

Location of SummervilleLocation

Past Weather in Summerville — Graph

°F

Summerville Temperature Yesterday

Maximum temperature yesterday: 62 °F (at 2:56 pm)
Minimum temperature yesterday: 39 °F (at 6:56 am)
Average temperature yesterday: 51 °F

High & Low Weather Summary for the Past Weeks

 TemperatureHumidityPressure
High74 °F (Nov 27, 11:56 am)97% (Nov 25, 5:56 am)30.38 "Hg (Nov 25, 5:56 am)
Low33 °F (Dec 3, 6:56 am)19% (Dec 5, 1:56 pm)29.63 "Hg (Dec 1, 5:56 pm)
Average53 °F69%30.02 "Hg
* Reported Nov 24 1:56 am — Dec 9 1:05 am, Summerville. Weather by CustomWeather, © 2019

Note: Actual official high and low records may vary slightly from our data, if they occured in-between our weather recording intervals... More about our weather records

Summerville Weather History for the Previous 24 Hours

Scroll right to see more
 ConditionsComfort  
Time TempWeatherWind HumidityBarometerVisibility
1:05 am
Mon, Dec 9
50 °FFog.5 mph96%30.21 "Hg3 mi
12:56 am50 °FFog.3 mph96%30.21 "Hg6 mi
12:37 am51 °FLow clouds.6 mph92%30.21 "Hg10 mi
11:56 pm
Sun, Dec 8
51 °FLow clouds.6 mph89%30.22 "Hg8 mi
10:56 pm51 °FMostly cloudy.7 mph89%30.24 "Hg10 mi
10:29 pm52 °FMostly cloudy.6 mph89%30.25 "Hg10 mi
9:56 pm52 °FMostly cloudy.6 mph83%30.25 "Hg10 mi
8:56 pm53 °FPassing clouds.7 mph74%30.25 "Hg10 mi
7:56 pm52 °FPassing clouds.6 mph77%30.24 "Hg10 mi
6:56 pm54 °FPassing clouds.5 mph77%30.25 "Hg10 mi
5:56 pm55 °FPassing clouds.6 mph59%30.25 "Hg10 mi
4:56 pm59 °FBroken clouds.6 mph51%30.24 "Hg10 mi
3:56 pm61 °FPartly sunny.8 mph44%30.24 "Hg10 mi
2:56 pm62 °FPartly sunny.10 mph41%30.24 "Hg10 mi
1:56 pm61 °FPartly sunny.12 mph41%30.26 "Hg10 mi
12:56 pm59 °FPartly sunny.9 mph42%30.30 "Hg10 mi
11:56 am58 °FPartly sunny.12 mph44%30.32 "Hg10 mi
10:56 am54 °FScattered clouds.8 mph51%30.36 "Hg10 mi
9:56 am49 °FPassing clouds.8 mph59%30.38 "Hg10 mi
8:56 am44 °FPassing clouds.10 mph71%30.37 "Hg10 mi
7:56 am40 °FSunny.9 mph80%30.36 "Hg10 mi
6:56 am39 °FClear.7 mph82%30.36 "Hg10 mi
5:56 am40 °FClear.8 mph83%30.34 "Hg10 mi
4:56 am42 °FClear.8 mph82%30.34 "Hg10 mi
3:56 am43 °FClear.10 mph86%30.33 "Hg10 mi
2:56 am44 °FClear.9 mph82%30.34 "Hg10 mi
Weather by CustomWeather, © 2019

See weather overview

Advertising